RH
69 67 66 65 63 62 61 60 59 58 55 54 51 48 46 43 44 43 41 41 37 34 30 27 54 93 103 96 98 93 83 91 101 100 97 94 97 101 95 94 98 100 100 99 99 100 100 99 99 99 99 100 100 100 100 100 100 100 101 95 87 85 79 71 70 70 70 66 62 59 56 53 50 49 49 48 49 51 52 53 54 55 55 55 56
73 71 69 67 65 63 62 60 60 60 58 57 55 52 51 49 48 49 48 48 45 42 40 33 37 69 98 100 99 99 91 88 93 99 101 95 95 100 99 97 97 99 101 100 100 100 100 101 100 99 100 100 100 100 99 100 100 100 100 97 91 90 90 86 81 76 73 68 64 62 57 53 49 47 48 48 48 48 49 49 50 51 52 52 52
74 72 69 66 65 63 62 61 59 59 58 57 57 55 54 54 53 53 51 52 52 50 50 47 41 51 79 97 100 101 99 94 89 92 100 99 97 99 100 100 99 100 100 100 101 100 99 100 99 99 100 100 100 100 99 99 100 100 100 97 93 92 91 87 83 81 79 76 74 69 61 56 53 48 46 46 47 48 47 47 47 47 47 48 48
76 73 71 68 67 65 63 63 61 61 61 60 59 58 57 56 55 55 54 53 54 54 53 54 51 47 57 76 91 98 101 100 94 93 99 99 99 101 100 99 100 100 100 100 101 100 99 99 99 100 101 100 100 100 99 100 100 100 100 98 97 96 93 89 88 89 86 82 78 74 68 61 54 48 47 47 47 47 47 46 45 44 43 43 43
79 77 76 74 73 73 70 69 68 67 66 65 63 62 60 60 58 57 57 56 55 56 56 54 55 54 52 55 66 81 95 101 99 97 100 101 99 101 100 99 100 100 100 100 100 99 97 98 99 100 100 100 100 100 100 100 100 100 100 100 99 99 99 98 98 98 96 92 86 79 74 68 57 53 53 50 48 47 46 45 44 42 40 40 39
85 83 83 82 81 82 81 79 77 76 75 73 71 69 67 66 65 63 61 61 59 58 58 57 56 56 56 54 53 60 76 92 100 100 99 101 100 100 100 99 100 100 100 100 100 99 98 98 100 100 100 100 99 100 100 100 100 100 100 100 100 100 100 100 100 100 100 100 95 85 78 73 67 64 61 55 53 50 47 46 44 42 39 38 37
87 88 87 87 85 85 84 82 81 80 79 79 78 77 76 74 72 70 67 64 63 62 60 59 58 57 56 56 54 52 55 67 83 94 98 101 100 100 100 100 99 100 101 100 99 100 100 100 100 99 100 100 100 100 99 100 100 100 100 100 100 100 100 100 100 100 100 100 99 95 88 82 78 74 67 61 57 53 50 48 45 43 40 36 35
86 85 81 79 76 73 73 72 72 71 69 69 70 72 74 76 76 75 74 70 67 66 64 61 60 59 57 56 55 54 51 51 57 69 79 89 96 99 100 100 99 100 100 101 100 99 100 100 100 100 100 100 100 100 100 100 100 100 100 100 100 100 98 99 100 100 100 99 100 100 97 94 93 89 80 70 63 57 53 50 46 44 40 37 34
79 75 70 65 59 54 53 54 54 55 55 52 51 52 54 57 61 63 68 71 71 69 68 67 63 61 60 57 55 54 53 51 50 52 56 64 76 86 93 97 98 100 101 101 100 100 100 100 100 99 100 100 100 100 100 100 100 100 100 100 100 99 97 99 100 100 100 100 100 101 100 98 98 98 92 81 70 63 57 52 48 45 41 37 33
71 67 62 57 50 43 40 39 39 39 41 39 36 35 35 36 38 41 46 52 59 64 66 67 66 65 63 60 57 55 53 51 50 49 48 50 56 64 74 84 89 94 99 101 100 100 100 100 100 100 99 100 100 100 100 100 100 100 100 100 101 99 97 98 100 100 100 100 100 100 100 100 98 98 96 87 74 66 62 56 51 46 42 38 34
64 60 53 48 41 34 30 28 28 27 26 25 23 22 22 22 23 24 27 30 36 43 49 54 58 60 62 61 59 57 56 53 50 48 46 46 48 51 58 67 73 78 85 92 95 97 100 101 100 100 100 99 100 101 100 100 100 100 100 100 100 100 98 98 100 100 100 100 100 100 100 100 99 97 96 93 82 71 68 64 59 54 47 41 35
54 47 39 35 33 34 30 22 19 18 16 15 15 15 14 14 15 16 17 19 21 23 26 32 39 44 47 51 53 53 54 54 53 50 46 44 44 46 49 55 62 64 67 74 79 84 92 99 101 100 100 99 99 100 100 100 100 99 100 100 100 100 100 100 100 100 100 100 100 100 100 100 100 99 99 99 92 82 77 73 69 65 57 48 39
42 34 27 24 26 29 26 19 15 13 13 14 15 15 14 13 14 15 14 15 15 15 15 16 21 25 28 32 36 40 43 46 48 49 47 44 41 41 43 45 50 55 57 60 64 66 71 82 92 96 98 99 99 100 100 101 100 100 99 100 100 100 100 100 100 100 100 99 98 100 100 100 100 100 100 100 99 95 91 84 79 74 65 55 46
37 31 27 23 22 22 20 19 19 19 19 21 21 20 18 18 18 18 18 17 17 16 15 13 13 15 16 17 19 24 27 30 33 37 39 39 37 37 38 37 38 42 47 50 55 57 57 61 72 84 92 96 99 100 100 100 100 100 100 99 100 100 100 100 100 100 100 99 98 98 99 100 100 100 100 100 100 100 99 95 92 88 79 66 53
39 35 32 30 31 31 29 27 26 27 28 28 28 26 23 23 22 22 21 21 22 21 19 17 15 14 13 12 12 13 15 17 19 21 24 27 29 30 31 32 32 32 35 38 44 50 52 52 56 65 76 85 93 98 101 101 100 100 100 100 100 100 100 100 100 100 100 100 100 99 98 100 100 100 100 100 100 100 100 100 100 99 94 85 70
42 35 34 41 48 48 42 38 36 36 37 36 36 35 32 30 30 30 29 27 26 25 23 22 20 18 15 14 13 11 11 12 12 13 14 15 17 19 21 24 27 28 28 30 33 38 44 47 49 53 60 68 76 86 94 99 100 100 100 100 100 100 100 100 100 100 100 100 100 100 100 99 99 100 100 100 100 100 100 100 100 100 99 96 88
36 30 34 44 52 52 46 45 45 45 44 42 41 40 38 37 37 38 37 35 33 31 29 27 24 22 19 17 16 15 14 13 12 12 11 11 11 11 12 14 18 21 23 23 24 26 31 35 39 44 50 56 62 69 77 85 92 98 100 101 99 99 100 100 100 100 100 100 100 100 100 99 98 100 100 100 100 100 100 100 100 100 100 99 96
28 26 32 38 41 43 43 47 49 48 45 42 42 41 41 41 41 43 43 41 40 39 36 34 32 29 26 24 22 20 18 16 15 14 12 12 11 10 10 10 10 12 14 16 16 17 20 24 28 33 39 47 53 58 63 68 75 83 91 98 101 100 99 100 100 100 100 100 100 100 100 100 99 99 99 99 100 100 99 100 100 100 100 99 97
26 26 29 32 34 39 45 50 52 48 44 43 43 43 44 45 46 47 48 48 48 47 44 42 41 38 37 35 32 28 25 22 19 18 16 14 14 12 11 10 9 9 9 10 10 11 13 16 19 23 27 35 44 51 55 59 63 68 74 82 91 98 101 100 100 100 100 100 100 100 100 100 100 100 98 98 99 100 99 100 100 100 101 99 100
25 24 26 28 31 39 46 51 49 45 45 47 47 48 48 49 51 52 53 52 52 51 50 48 46 45 43 42 40 37 33 30 27 24 22 20 18 16 14 13 11 11 10 9 8 8 8 9 12 16 19 23 31 41 49 53 56 60 63 66 71 82 92 99 101 100 100 100 100 100 100 100 100 100 99 98 98 99 99 100 100 99 101 100 100
26 26 27 27 31 39 45 45 42 42 46 49 51 55 56 57 57 57 56 55 53 51 50 50 49 48 47 46 46 44 41 38 35 31 29 26 24 22 19 17 15 13 13 12 10 9 8 8 8 10 13 15 19 26 38 47 52 54 58 60 61 63 71 83 94 99 101 101 99 100 100 100 100 100 99 99 99 99 99 100 100 99 100 100 99
31 31 31 31 34 38 40 38 38 42 46 49 54 59 62 65 66 64 62 60 57 54 53 53 52 51 51 51 50 50 47 44 41 37 34 31 29 27 24 22 19 17 16 15 14 12 10 9 8 8 10 11 13 15 22 34 45 50 53 56 58 58 58 63 73 84 94 100 101 100 100 100 101 101 100 99 99 100 100 100 100 100 99 99 100
32 34 35 38 40 39 36 36 40 44 48 52 58 63 66 70 72 72 69 65 62 61 60 59 58 58 59 58 57 55 53 50 45 42 39 36 34 32 29 27 24 22 20 19 18 17 15 13 11 10 9 10 11 12 13 19 29 41 48 52 55 57 56 56 58 65 75 87 96 98 99 100 100 101 100 98 99 100 100 100 100 100 100 99 100
28 33 38 42 41 38 37 39 41 45 50 56 61 65 68 72 76 77 75 70 67 67 66 64 62 62 63 63 62 61 59 56 52 48 44 42 39 36 34 32 29 27 25 24 23 21 20 19 16 14 12 11 11 11 12 12 16 24 35 44 50 53 54 54 54 56 60 69 80 88 94 98 101 102 99 97 98 100 100 100 99 99 99 100 100
27 33 38 40 38 37 39 41 44 48 54 59 63 67 72 76 81 81 78 74 71 70 69 67 65 64 64 63 63 62 61 59 57 54 52 49 47 43 40 37 35 33 30 29 28 27 26 25 22 20 17 15 13 12 12 12 12 14 20 29 38 44 49 51 51 52 54 57 64 72 82 92 98 100 98 96 98 99 100 100 100 99 98 98 100
29 31 32 32 34 37 40 43 48 53 58 63 68 72 77 82 86 86 82 78 74 72 73 71 70 68 66 65 64 63 62 60 58 57 56 55 53 51 47 43 40 38 35 34 34 33 32 31 28 26 23 20 18 16 14 13 12 11 12 17 25 32 38 43 46 48 49 51 55 58 67 79 89 93 92 94 98 100 101 101 100 100 100 99 100
27 27 28 30 33 37 42 47 53 57 62 68 73 76 81 85 86 85 83 80 77 76 75 74 73 72 69 68 67 65 63 61 59 58 56 56 55 54 52 49 46 43 40 40 40 38 37 35 32 30 29 27 25 22 19 16 14 13 11 11 16 22 28 32 37 41 43 43 46 50 56 65 75 82 84 88 94 97 100 101 100 99 100 100 101
23 25 28 30 34 39 44 49 55 60 65 71 76 80 83 83 81 80 81 82 81 79 77 76 75 73 72 70 68 66 63 62 60 58 57 56 56 55 54 52 50 48 46 44 43 42 41 39 37 34 32 32 31 27 24 21 18 17 15 12 11 15 21 25 28 32 35 37 38 41 46 53 62 71 77 82 89 93 95 97 98 99 100 100 100
22 25 28 32 39 45 50 55 59 64 70 76 80 81 79 77 75 76 80 82 82 81 79 78 76 75 74 72 69 66 64 63 62 61 60 59 58 57 56 54 54 52 50 47 44 44 44 43 41 39 37 36 35 32 29 26 23 20 18 16 13 12 14 19 22 24 27 30 32 33 37 42 50 59 68 76 84 91 92 91 92 96 100 100 100
23 24 27 32 40 49 61 69 70 72 75 76 76 74 72 72 73 76 79 81 82 81 79 79 78 77 76 74 72 69 66 66 66 65 64 62 60 59 57 56 55 53 52 50 47 46 46 46 46 44 43 42 40 37 35 32 30 27 24 20 17 14 12 14 17 21 23 24 26 28 30 33 39 47 56 64 74 85 91 90 87 91 98 101 99
24 24 25 30 41 56 70 76 74 74 75 72 70 69 68 69 72 76 79 80 81 81 80 80 80 80 79 77 75 72 70 69 69 68 67 65 64 62 59 57 56 55 54 53 51 50 49 50 51 50 49 48 46 44 42 41 39 37 33 28 22 18 15 13 13 16 19 21 22 23 24 26 29 37 45 52 58 69 81 88 89 90 95 100 101
23 23 24 32 47 61 70 70 69 72 73 71 69 67 66 67 70 72 76 80 82 83 82 81 81 82 82 80 78 75 73 72 71 70 70 69 67 64 62 60 59 59 58 57 56 56 55 55 56 55 54 53 52 51 51 51 50 47 45 41 33 25 19 16 13 13 15 19 20 20 21 21 21 26 36 45 48 51 61 74 85 91 94 97 100
21 21 25 33 44 55 62 62 64 69 73 71 68 66 65 65 68 70 73 78 81 83 84 83 83 84 84 84 83 80 77 75 74 72 72 71 69 67 66 65 64 63 63 62 62 62 61 61 61 60 58 57 55 56 58 60 60 59 58 56 49 38 28 21 17 13 12 15 18 19 19 19 18 19 25 36 43 45 46 53 66 83 94 97 98
21 21 26 31 37 45 53 56 59 63 64 63 63 65 66 65 66 70 74 77 79 81 83 85 86 87 88 88 87 84 81 79 77 75 73 72 73 72 71 70 69 67 67 66 66 66 65 66 67 66 64 62 61 62 64 66 67 67 67 67 63 53 40 30 23 17 14 13 14 17 18 18 18 16 18 26 35 40 42 43 47 61 81 95 99
22 24 27 31 36 41 44 47 51 53 51 51 55 62 65 64 65 70 74 77 78 80 84 87 88 89 91 91 89 87 85 83 80 78 76 76 78 77 76 75 73 72 71 71 70 69 69 70 71 71 70 67 67 70 71 69 69 70 70 72 72 66 55 44 34 25 19 15 13 14 16 17 18 17 15 21 32 37 39 41 41 43 57 78 95
26 29 30 32 36 38 39 41 42 41 41 43 48 55 59 61 65 71 76 77 78 80 85 88 88 90 93 93 91 88 87 85 83 81 80 80 81 81 80 78 77 76 76 74 73 72 73 73 74 74 73 70 71 75 77 75 74 74 75 76 75 71 68 63 54 41 29 22 19 17 16 16 17 18 16 19 31 39 38 38 41 39 40 53 74
27 32 33 32 33 35 37 36 34 34 36 39 45 50 54 58 63 70 75 76 77 82 85 86 89 92 93 93 91 90 89 89 87 85 83 83 83 83 83 83 81 79 78 77 76 76 77 77 77 78 78 75 75 79 81 80 80 81 83 83 80 77 76 75 71 59 43 29 24 22 21 18 17 18 16 17 29 43 43 38 38 39 37 38 47
28 31 32 32 31 31 32 32 31 33 36 41 47 52 54 56 61 67 71 72 77 84 85 86 91 94 94 93 92 92 92 92 90 88 86 85 85 85 85 85 84 81 78 78 79 79 79 80 81 82 82 80 78 81 84 83 83 87 91 92 91 90 88 85 82 79 68 54 43 33 26 20 18 19 18 17 29 45 47 41 38 36 36 35 33
28 29 30 31 30 29 29 31 33 36 40 45 50 53 53 53 59 67 69 70 77 84 86 89 95 96 96 95 94 94 96 95 93 90 88 87 86 86 86 86 85 82 80 80 81 80 80 82 84 85 86 86 85 85 86 84 84 91 98 101 100 99 96 93 92 94 94 90 83 70 49 29 19 19 21 25 36 49 51 46 43 40 37 34 32
26 27 28 29 29 29 30 33 36 40 43 46 47 46 45 47 55 63 69 74 80 82 85 92 98 99 99 98 97 97 98 97 95 93 91 90 89 87 87 87 87 86 84 83 84 84 83 84 87 88 90 92 91 88 87 88 89 94 100 103 102 100 97 95 96 99 100 100 100 93 77 59 45 36 32 35 45 56 57 51 48 46 40 33 31
26 26 26 27 28 29 33 37 40 40 39 39 40 40 40 44 49 57 70 81 85 85 88 96 101 102 102 101 101 101 99 97 96 95 94 94 93 91 88 87 88 89 88 87 87 88 88 87 89 90 91 95 95 91 90 90 93 98 102 102 101 100 98 97 97 97 97 96 95 92 88 87 87 77 60 51 53 60 62 57 52 48 43 36 35
27 26 27 27 28 31 36 38 37 35 35 37 41 43 44 46 49 59 74 84 87 90 94 99 103 104 103 102 102 104 102 99 98 98 97 97 97 95 91 88 89 90 91 91 90 90 90 89 89 89 91 94 96 95 93 91 91 96 101 102 101 100 100 99 96 93 92 94 97 99 97 99 103 99 85 71 66 66 67 62 55 50 46 44 43
28 27 27 28 30 34 37 35 32 33 37 42 44 45 47 49 54 65 76 82 87 92 96 101 105 106 105 103 102 103 103 102 101 101 100 99 99 98 93 90 91 92 94 94 92 90 91 91 91 91 92 95 98 97 96 95 94 95 98 100 101 100 100 101 97 93 93 97 100 102 101 100 101 101 97 91 82 75 70 65 58 53 51 51 50
31 29 28 30 34 35 34 30 30 34 40 45 46 46 47 52 59 69 76 82 88 93 95 101 106 107 106 104 101 100 102 104 103 103 101 100 100 99 96 94 93 94 94 95 94 93 94 95 95 95 96 99 99 98 97 98 98 98 99 100 101 100 100 100 98 96 98 100 101 101 100 100 100 100 102 102 96 84 74 68 62 56 55 54 53
34 32 31 33 36 36 31 27 30 37 43 45 46 46 47 52 60 69 75 81 87 91 95 100 106 108 108 104 100 99 102 104 105 103 102 101 101 100 98 96 95 95 95 95 96 97 98 97 97 99 99 100 100 99 99 99 100 100 100 100 100 100 100 100 100 99 100 100 100 100 100 100 101 100 100 103 102 94 83 73 66 61 58 57 55
37 34 33 36 38 36 30 27 32 40 43 44 45 46 47 53 60 68 75 80 85 90 95 101 105 108 109 106 102 102 103 105 106 104 104 104 103 101 99 96 94 95 95 95 97 99 100 101 102 101 100 98 99 100 101 100 100 100 100 100 100 100 100 100 100 100 101 100 100 100 100 100 100 101 100 101 103 102 93 82 75 69 63 58 55
40 37 36 39 39 35 29 28 34 41 44 45 45 45 48 54 61 69 76 81 86 91 96 101 105 107 108 107 104 103 104 105 105 105 105 105 105 104 102 99 96 95 94 95 98 100 103 105 104 101 98 98 100 100 101 101 100 100 100 100 100 100 100 100 100 100 100 100 100 100 100 100 100 100 100 100 101 102 100 94 88 80 72 65 59
42 39 39 41 40 34 29 30 36 43 46 46 46 47 49 53 60 69 76 80 86 93 96 99 103 106 105 105 104 103 103 103 104 104 104 105 105 105 105 103 101 98 94 95 97 101 104 106 103 98 96 99 101 101 100 100 100 100 100 100 100 100 100 100 100 100 100 100 100 100 100 100 100 100 100 100 100 102 103 101 97 90 82 77 72
44 42 43 43 41 35 30 32 39 45 48 48 48 49 50 51 55 62 71 77 85 92 96 98 101 103 103 102 103 103 102 102 102 103 104 105 105 105 104 104 104 101 97 95 95 97 102 105 103 97 96 100 103 101 100 100 100 100 100 100 100 101 101 100 100 100 100 100 100 100 100 100 100 100 100 100 100 102 102 103 101 97 91 87 81
46 44 44 45 42 35 31 34 41 46 49 51 51 51 52 52 52 55 64 75 85 91 96 98 99 99 100 100 100 101 103 103 102 102 102 103 104 105 104 103 102 102 100 98 97 96 99 101 99 95 97 104 105 101 100 101 100 100 100 100 100 100 101 100 100 100 100 100 100 100 100 100 100 100 100 100 101 101 101 102 103 101 96 90 84
48 46 46 46 43 37 33 36 42 47 51 53 54 54 54 53 52 54 61 72 82 88 93 97 98 98 97 97 97 98 101 103 103 102 102 101 102 103 104 103 101 101 101 101 100 98 98 98 96 94 98 104 105 102 101 100 100 101 101 99 99 100 101 101 100 100 100 100 100 100 100 100 100 100 100 100 100 100 100 101 101 102 100 97 93
Wind_Speed
27 27 26 26 26 26 25 25 24 25 26 27 28 29 29 28 27 27 27 27 28 30 34 39 42 43 42 41 42 45 49 52 46 42 47 49 47 46 46 48 50 47 42 41 43 42 42 42 41 43 42 41 43 43 40 38 36 35 32 29 29 30 32 33 33 34 36 37 38 38 39 39 40 40 40 39 39 38 37 37 35 34 34 33 32
23 22 22 22 22 22 22 21 21 21 22 22 24 25 25 24 23 22 22 22 22 23 25 30 37 43 44 42 39 40 47 53 50 43 42 46 48 49 50 51 50 48 44 42 43 43 45 45 42 44 46 45 46 45 41 38 36 36 34 32 30 30 30 31 31 33 34 35 35 35 37 38 39 40 40 40 39 39 38 37 36 36 35 35 34
21 21 20 20 20 19 19 19 19 19 19 19 20 21 21 21 21 20 19 18 18 18 18 20 26 35 42 46 44 38 39 47 52 48 42 41 46 50 52 51 51 51 48 44 43 43 44 46 45 49 50 47 46 44 41 40 39 37 34 32 32 31 31 31 32 32 32 32 32 34 36 37 38 39 40 40 39 39 38 38 38 37 37 37 37
21 20 19 19 19 18 18 18 18 18 18 18 18 19 20 20 20 20 19 17 16 15 15 14 16 21 30 38 44 42 36 36 42 45 43 39 38 44 49 49 50 52 51 47 45 45 45 46 47 51 54 50 46 43 41 40 40 40 38 36 34 32 32 33 32 31 31 31 32 35 36 37 39 39 38 38 38 38 38 38 39 39 39 38 38
20 19 19 19 19 19 19 19 19 18 19 19 19 20 20 20 20 20 20 19 18 17 15 14 13 15 19 25 33 40 39 35 32 34 38 39 36 38 43 46 47 49 50 48 47 47 46 48 49 50 53 53 50 46 42 40 40 41 42 41 38 35 34 35 34 32 31 30 31 33 36 38 38 36 35 36 37 38 38 38 39 39 39 39 39
20 20 20 20 20 20 21 21 21 21 22 21 21 21 21 22 22 22 22 21 21 20 19 18 17 16 17 20 25 32 38 39 35 30 31 34 33 33 37 41 43 46 48 48 49 49 49 50 51 51 52 55 54 50 46 43 41 42 44 44 42 38 37 38 37 36 34 32 32 33 34 36 35 32 33 36 37 38 39 39 39 39 40 40 41
20 21 22 22 23 23 24 24 25 25 26 25 25 25 25 25 25 26 26 25 24 24 23 23 22 22 21 21 22 24 28 33 36 34 31 31 31 30 31 34 37 41 45 46 47 49 51 52 53 53 55 56 57 55 51 48 46 45 46 46 44 42 41 41 40 39 38 36 35 34 33 34 33 33 34 35 36 37 38 39 39 40 40 41 41
21 22 24 26 27 28 29 30 30 31 31 31 30 30 29 29 29 29 30 30 29 28 28 27 27 27 26 25 24 24 24 26 28 30 31 31 32 31 30 29 31 35 41 44 43 44 47 51 54 55 56 56 57 57 55 53 50 49 49 49 47 46 45 43 42 43 42 39 37 36 35 34 33 33 34 35 36 37 37 38 39 40 40 40 40
26 29 30 32 34 35 36 36 37 37 38 38 38 37 36 35 34 34 34 34 33 33 32 32 31 30 30 30 30 29 28 28 27 28 28 28 30 31 31 30 29 30 35 38 39 40 41 45 49 53 55 56 57 58 57 56 54 53 52 52 50 49 48 45 43 45 45 42 40 39 39 38 36 36 36 36 38 39 39 38 38 38 39 39 39
33 36 39 41 41 42 43 43 44 44 44 45 45 44 43 43 41 40 39 39 37 37 37 37 37 36 35 34 34 34 34 33 32 32 30 29 28 29 31 32 32 31 32 33 33 33 35 38 41 45 49 53 56 58 58 57 56 56 55 55 54 52 52 50 46 45 45 45 44 43 42 42 41 41 40 38 38 38 39 39 37 38 38 38 37
39 43 46 48 48 47 48 49 50 50 50 49 48 47 47 47 47 46 44 44 43 41 41 41 41 41 40 39 38 37 38 38 38 37 36 35 33 31 30 31 32 34 34 34 33 32 31 32 34 36 40 46 51 55 58 58 57 57 57 57 57 56 55 53 51 48 47 46 47 46 45 45 44 44 42 40 39 38 37 37 36 36 36 35 35
46 49 51 52 51 49 49 52 53 53 52 50 47 46 46 46 46 47 47 46 46 45 44 44 44 45 46 45 44 42 41 41 42 42 41 41 39 37 35 33 32 33 34 36 37 36 35 34 33 32 34 38 43 49 54 56 56 56 57 57 57 57 57 56 56 54 50 48 47 48 48 47 46 46 45 43 42 40 38 37 36 35 36 36 35
49 51 52 52 50 50 52 54 53 52 50 47 45 44 44 43 42 43 44 45 45 44 44 45 45 46 47 47 48 47 46 45 45 45 45 45 45 43 41 39 37 36 35 35 36 37 38 38 37 35 33 33 36 41 46 51 53 54 56 56 57 57 58 59 59 57 54 51 50 49 49 49 49 48 47 45 44 43 42 41 40 39 38 38 37
51 51 51 50 49 49 50 50 49 47 44 43 43 42 42 41 40 40 41 41 42 42 41 41 42 43 44 45 47 48 48 47 46 47 47 48 48 47 46 45 43 41 40 39 38 37 37 38 39 39 38 36 35 36 39 43 47 50 52 54 55 56 58 59 61 60 57 55 54 54 53 52 51 49 49 48 47 46 45 44 42 41 40 40 40
51 51 49 48 47 46 46 45 45 44 43 43 43 43 43 41 40 39 39 39 39 40 39 39 38 39 40 41 43 44 46 46 46 46 46 47 49 49 50 50 48 47 45 44 43 42 40 39 39 39 40 40 39 38 38 39 41 44 47 50 52 54 56 58 60 61 60 58 57 57 57 56 54 51 50 50 49 48 47 46 44 43 43 43 42
51 51 49 47 45 44 44 43 42 42 42 44 44 45 45 43 41 39 38 38 38 38 39 39 38 37 37 38 38 40 41 43 44 44 44 45 46 47 49 51 52 52 50 48 48 47 45 43 42 41 41 41 42 41 41 40 40 40 42 44 48 51 53 56 58 60 61 60 59 59 60 59 57 54 53 52 52 51 49 48 47 46 46 46 46
51 50 47 45 44 44 43 42 43 43 43 44 45 45 44 43 41 40 38 38 37 38 39 40 40 39 38 37 37 37 38 39 41 42 43 44 44 45 46 48 51 53 54 53 52 51 50 48 45 44 44 44 43 43 44 44 43 42 42 42 43 46 50 53 55 58 60 60 59 60 60 61 59 57 55 54 54 53 53 51 50 50 48 48 49
49 48 45 44 44 44 44 44 45 46 46 47 46 45 43 41 40 40 39 39 38 39 40 40 41 41 40 39 39 38 38 38 39 40 41 42 43 44 45 46 48 50 53 54 55 55 54 52 50 47 46 46 46 46 46 46 46 46 45 44 44 44 45 49 52 55 57 58 59 59 59 60 60 59 58 57 56 55 55 54 52 52 51 51 51
47 46 44 44 45 45 47 48 49 50 50 49 47 45 43 41 39 38 38 39 40 40 41 42 42 42 42 42 41 41 40 40 40 40 41 41 42 43 44 45 46 48 50 52 55 57 57 57 56 53 50 48 48 49 49 48 48 48 48 48 47 47 46 46 48 51 53 55 56 57 57 58 60 60 60 60 59 57 57 56 55 54 54 53 52
46 45 45 45 46 47 48 50 52 53 51 49 47 44 42 40 39 39 39 40 41 41 42 42 42 42 42 42 42 41 41 41 41 42 42 43 43 43 44 45 45 46 48 50 52 55 58 60 61 60 57 54 50 50 51 52 52 51 51 50 50 50 50 49 48 48 50 51 53 54 55 56 59 61 61 62 63 62 60 59 58 57 57 56 55
46 45 45 46 47 48 50 52 52 52 51 49 46 43 40 39 39 41 41 42 42 42 41 41 41 41 41 42 42 42 42 41 42 42 43 44 45 45 45 45 46 46 46 47 49 51 55 58 60 61 61 60 57 52 51 53 54 54 54 53 53 53 52 53 52 50 49 50 51 52 53 54 56 58 60 61 64 65 65 64 63 62 61 60 59
46 46 47 47 48 50 52 52 51 50 49 47 45 42 41 40 41 42 43 43 43 42 41 40 40 40 40 41 42 42 43 43 43 44 44 45 45 46 46 47 47 47 47 47 47 48 51 55 58 60 60 60 61 58 54 52 54 56 57 56 56 56 55 55 55 55 53 52 52 52 52 52 53 55 56 57 61 64 66 67 66 66 65 64 62
46 48 48 48 51 52 52 52 50 49 47 45 44 43 42 43 43 44 44 44 44 43 42 41 41 40 40 41 42 43 44 44 45 46 46 46 47 47 48 48 48 48 48 48 49 49 49 51 54 57 58 58 59 61 60 57 55 56 59 59 58 58 58 57 57 57 57 56 55 54 53 53 53 53 54 55 56 59 63 66 67 67 67 67 65
47 48 50 51 53 52 51 50 49 47 45 43 43 43 44 44 45 47 47 46 44 43 42 42 41 41 41 41 42 43 44 45 46 47 47 47 48 48 48 49 50 50 49 49 50 50 50 50 50 52 55 57 57 58 60 61 59 58 59 61 61 60 59 59 59 58 59 59 59 58 56 55 54 54 54 55 55 56 58 61 65 66 67 67 66
48 50 52 52 52 51 50 49 48 47 45 44 44 45 45 46 47 49 49 47 46 43 42 42 42 42 42 42 43 43 44 45 46 47 47 48 48 49 49 49 50 50 50 50 51 51 51 51 51 50 52 55 57 57 58 60 62 62 61 61 62 63 62 61 61 60 60 60 60 61 60 59 58 57 56 56 56 56 55 57 60 62 64 65 66
49 51 52 51 50 49 48 48 47 47 46 46 46 47 47 48 48 49 48 48 47 45 43 42 42 42 42 42 43 43 44 45 45 46 47 47 48 49 49 50 50 50 49 49 50 50 51 52 53 53 52 52 54 57 59 60 61 63 64 64 64 64 64 63 63 62 61 61 62 62 62 62 61 61 60 58 57 57 56 56 56 58 59 62 64
50 51 51 50 49 47 47 47 47 47 46 47 47 48 48 49 49 48 48 47 47 46 44 43 42 42 42 42 42 43 44 44 45 45 45 46 46 47 49 50 50 50 49 48 49 49 50 52 53 54 54 53 54 55 58 60 61 62 64 66 67 67 66 66 65 64 63 62 62 63 63 64 64 63 63 62 61 60 59 58 56 56 56 59 62
50 50 50 49 48 47 47 47 46 47 47 48 49 49 49 49 48 48 47 47 46 46 45 44 43 42 41 42 42 42 43 43 44 44 44 44 45 46 47 49 49 50 49 49 48 49 49 50 52 53 53 54 54 55 56 59 61 62 63 65 68 69 69 68 67 67 65 63 63 63 63 64 65 65 65 65 64 62 61 61 59 56 56 57 59
49 49 49 49 48 48 47 47 47 47 48 49 49 50 49 49 48 47 47 47 47 47 46 45 44 43 42 41 41 41 42 42 43 43 43 43 44 44 46 47 47 48 48 48 48 48 49 49 50 52 52 53 54 55 55 56 59 60 62 63 65 68 70 70 70 69 68 66 64 63 63 64 65 66 66 66 66 64 63 64 63 60 57 56 57
48 48 48 48 48 48 48 48 49 48 49 49 49 49 50 49 48 47 46 46 46 47 46 45 44 42 42 41 41 41 41 42 42 42 42 43 43 43 44 45 46 46 47 47 47 47 48 48 49 50 51 52 52 53 54 55 56 57 59 61 62 64 67 69 71 71 70 69 66 65 64 63 64 65 67 68 67 66 65 65 65 64 61 59 57
48 48 48 47 47 48 49 50 50 50 50 50 50 50 49 49 48 48 47 46 46 46 45 45 44 43 42 41 41 41 41 41 41 41 41 42 42 42 42 43 44 44 45 45 46 46 46 47 48 49 50 50 51 51 52 53 54 55 56 58 59 61 63 66 69 71 72 71 69 66 65 64 64 65 66 67 67 67 66 65 65 65 64 62 60
48 48 48 48 48 49 50 50 51 51 51 51 51 51 49 48 48 47 47 47 46 45 45 44 43 43 42 41 41 40 40 40 40 40 40 40 41 41 41 41 41 42 42 43 43 44 45 45 46 47 47 48 49 49 50 52 53 54 54 55 56 58 59 61 65 69 72 72 71 69 66 65 64 64 64 65 66 67 67 66 65 65 65 64 63
48 48 48 48 49 50 51 51 52 52 52 52 52 51 50 49 48 47 47 46 46 45 45 44 43 42 42 42 41 41 40 40 40 39 40 40 40 40 39 39 40 39 40 41 41 42 43 43 45 46 46 47 47 47 48 49 51 52 52 52 53 54 56 58 60 64 69 71 72 71 69 66 65 65 65 65 65 66 66 66 66 65 64 64 64
47 48 48 48 50 51 51 52 52 52 52 52 52 51 50 49 48 48 47 46 45 44 44 44 44 42 42 41 41 40 40 40 40 39 39 39 38 38 38 38 38 38 39 39 39 41 42 42 44 45 45 46 46 46 47 48 48 49 50 51 52 53 53 55 57 60 64 68 69 70 70 68 67 66 66 67 67 66 66 66 66 66 65 64 63
47 48 49 49 50 51 52 52 52 52 52 52 52 51 50 50 49 48 48 46 45 44 43 43 43 42 42 41 40 40 40 39 39 38 38 38 37 36 36 36 37 38 38 38 38 39 39 40 40 41 42 43 43 43 45 46 47 47 48 49 50 51 52 52 53 56 59 62 64 66 68 68 67 66 66 66 66 66 66 65 65 66 66 64 63
48 49 49 50 51 52 52 52 52 52 51 51 52 52 52 51 50 48 47 46 45 44 42 42 42 41 41 41 40 39 39 38 38 37 37 36 35 35 35 35 36 37 36 36 36 36 37 37 37 37 38 39 38 38 40 41 43 44 46 47 48 49 49 49 50 52 55 57 59 61 64 66 66 66 66 65 65 65 65 65 64 64 65 65 64
48 49 49 50 51 51 52 52 52 52 51 52 52 52 53 52 51 49 47 45 44 43 41 41 41 41 40 40 39 39 38 37 37 36 36 35 34 33 33 34 35 35 35 34 34 34 34 34 35 35 36 37 36 35 35 36 37 38 40 43 45 45 46 47 48 49 51 54 56 57 60 63 66 67 67 66 65 64 65 65 64 64 64 65 64
48 49 50 50 50 51 51 52 53 52 52 52 52 53 53 52 50 48 46 45 43 41 40 40 40 40 40 39 38 38 37 37 36 35 35 34 33 32 32 33 34 34 33 32 33 33 32 32 33 34 34 35 35 33 33 33 33 33 34 36 38 40 42 44 46 47 48 50 53 55 57 60 63 65 65 64 63 64 64 65 64 64 64 65 64
48 49 49 50 51 51 52 52 53 53 52 52 52 53 53 52 49 47 45 44 42 41 40 39 39 39 39 38 37 37 36 36 35 35 34 33 32 31 31 32 32 32 32 31 32 32 32 31 31 32 33 34 33 32 32 32 31 30 30 31 32 34 37 39 41 43 45 46 48 51 52 53 56 59 60 59 60 61 62 63 62 62 63 63 62
48 48 49 50 50 51 53 53 54 53 52 52 52 52 52 51 49 46 44 42 41 40 39 39 38 38 37 36 36 35 35 35 35 34 33 32 31 30 31 31 31 31 31 31 31 32 32 31 30 31 31 31 32 31 30 30 30 28 27 27 28 30 33 34 36 39 41 43 45 47 47 46 48 51 54 55 56 57 58 59 59 60 61 61 60
49 49 49 49 50 52 54 54 53 52 51 51 50 50 49 48 48 46 44 42 40 39 38 37 37 37 36 35 34 34 34 34 34 34 33 31 30 30 30 30 30 30 30 30 30 31 31 30 29 29 30 29 29 30 29 28 27 27 26 26 27 29 31 32 34 37 40 43 43 44 43 41 41 44 48 51 52 53 55 56 57 58 58 58 57
49 49 49 50 51 52 53 53 53 51 50 49 48 47 46 45 44 44 43 42 40 38 37 36 36 35 35 34 34 33 33 33 32 33 32 31 30 30 30 29 29 29 29 29 29 30 30 29 28 28 28 27 27 28 28 27 26 25 25 26 28 30 31 33 35 37 39 40 40 40 39 38 37 39 42 45 48 49 50 52 54 55 54 54 55
49 49 50 51 52 53 53 53 52 50 48 47 47 46 45 43 41 41 41 41 39 37 37 36 34 33 33 33 33 32 32 32 32 32 32 30 29 29 29 29 28 29 28 28 27 28 28 28 27 27 27 27 27 27 27 27 26 24 24 25 28 30 31 32 36 37 36 36 35 35 35 34 34 36 38 40 43 46 47 49 50 51 51 51 52
49 49 50 51 52 53 53 52 51 48 47 46 46 47 45 42 40 39 39 39 38 37 36 35 34 32 32 32 32 31 31 31 31 31 31 30 29 28 28 27 27 28 28 27 26 26 27 27 26 25 25 25 26 26 26 26 25 25 24 24 25 29 31 33 35 34 32 31 30 30 31 31 32 33 35 38 40 42 43 45 46 48 49 49 49
49 49 50 50 51 52 52 52 50 47 46 46 46 46 45 42 39 37 37 37 36 36 35 34 33 32 31 31 30 30 30 30 30 31 31 29 29 28 27 26 26 27 27 26 25 25 25 26 25 25 25 24 25 25 24 24 25 24 24 23 24 27 29 31 31 30 28 27 26 26 26 26 26 28 31 35 37 38 40 41 43 45 47 47 48
49 49 50 51 51 51 51 51 48 46 45 45 45 44 43 41 39 37 36 36 35 34 34 34 33 32 31 30 30 29 28 29 29 30 30 29 29 28 27 26 26 26 26 26 25 24 24 24 25 25 25 24 23 23 22 23 23 23 23 23 24 26 27 28 28 27 25 25 24 23 23 23 23 25 28 32 35 36 37 38 40 42 44 45 46
49 49 50 50 51 50 50 50 47 45 44 44 44 43 41 40 38 37 36 35 34 33 33 33 33 32 31 30 29 28 28 27 28 28 28 29 29 29 28 27 26 26 26 25 24 24 23 23 24 25 25 24 22 21 21 21 21 21 22 23 24 26 27 27 26 25 24 23 21 20 20 21 23 25 27 30 32 33 34 36 37 39 40 41 42
49 49 50 50 50 49 49 48 46 44 43 43 43 41 40 38 37 36 35 34 33 32 32 32 32 32 31 30 29 28 28 27 27 27 28 28 28 29 28 27 27 27 26 25 24 23 23 23 25 25 24 22 19 19 19 19 19 20 22 24 25 25 25 26 25 24 22 21 20 18 17 18 20 22 25 27 29 31 32 34 35 36 37 38 39
49 49 50 50 49 49 48 47 45 43 42 41 41 40 39 38 37 36 35 34 32 31 31 32 32 32 32 31 30 29 28 27 27 27 27 28 28 29 28 27 26 27 27 25 24 23 22 23 24 25 23 20 18 18 18 17 17 19 21 23 23 24 24 24 25 25 23 21 19 17 17 18 19 21 23 25 27 29 31 32 34 35 35 36 37
48 48 49 50 49 48 47 46 44 43 41 40 40 40 39 38 37 36 34 33 32 31 31 31 32 32 32 31 31 30 29 28 28 28 27 27 27 28 29 28 26 26 26 26 25 25 24 24 24 23 21 19 19 18 16 15 15 18 20 21 22 23 23 23 24 26 25 23 20 18 18 18 19 21 23 24 26 28 29 31 32 33 34 35 36
47 48 49 49 48 47 47 45 44 43 41 39 39 39 39 38 37 35 33 32 32 32 31 31 31 32 32 32 31 31 30 29 28 28 28 28 26 26 27 28 28 27 27 26 26 26 26 26 25 22 20 20 20 19 16 14 14 17 20 21 22 21 21 22 24 26 26 24 21 19 19 19 19 21 23 24 26 27 27 28 29 30 31 32 33
Wind_Direction
302 302 302 301 300 299 296 295 293 290 287 286 286 286 285 285 284 283 283 282 276 268 263 256 248 246 249 250 249 245 243 249 256 248 239 239 242 244 243 245 246 244 242 243 244 247 252 254 260 261 256 253 250 243 237 234 232 234 234 232 230 228 228 230 231 233 235 236 237 239 241 242 242 243 243 242 243 243 245 246 246 247 248 248 248
309 306 303 302 300 300 299 297 295 291 289 287 287 287 288 288 289 287 286 285 284 278 270 261 250 244 244 245 247 244 238 241 251 256 247 237 238 242 241 240 243 244 242 241 241 242 244 246 251 254 254 255 253 247 242 237 232 232 232 228 223 221 223 226 229 231 234 236 238 239 240 241 241 241 242 242 242 242 243 245 246 247 247 247 246
306 302 300 301 300 300 301 300 299 298 296 294 292 291 290 290 291 292 291 288 289 288 282 274 259 249 244 243 245 247 241 236 242 251 253 243 235 235 238 238 238 239 239 239 238 238 240 242 244 245 244 246 249 247 245 242 238 234 232 230 224 220 222 225 227 230 232 235 236 238 238 239 239 239 240 241 242 243 243 244 245 245 245 244 244
301 300 298 298 299 299 299 299 301 302 301 299 296 294 291 291 292 293 295 294 292 292 290 289 279 264 254 249 248 249 248 241 237 241 246 248 240 232 234 238 236 234 234 234 235 236 238 241 243 243 241 240 243 246 246 246 245 240 234 230 226 223 225 227 228 229 231 234 236 237 237 236 237 237 238 241 242 243 244 244 244 244 244 243 243
301 300 298 298 298 299 300 300 301 302 302 302 300 299 297 297 297 296 298 299 298 296 292 290 286 277 266 259 256 253 254 251 244 240 241 245 247 239 235 237 237 236 232 230 231 232 235 238 242 244 243 242 242 243 245 247 248 247 241 234 229 226 226 228 228 229 231 234 237 238 237 237 238 239 240 241 241 242 243 243 244 244 244 243 242
306 306 305 305 305 305 304 303 302 301 301 302 302 303 303 303 303 302 300 300 300 300 297 294 290 286 278 268 262 259 259 258 256 253 244 241 244 244 239 235 235 236 234 230 229 229 231 235 237 241 243 245 244 242 241 243 246 248 246 241 237 233 230 228 227 227 228 230 233 235 236 237 237 237 237 238 239 240 240 241 241 242 242 242 241
304 305 306 305 306 305 304 303 303 302 302 302 301 301 301 301 301 301 300 299 300 300 300 299 296 294 293 289 283 276 270 266 265 266 260 248 243 242 241 238 235 235 234 233 231 229 229 232 235 238 241 243 243 241 240 240 242 245 246 246 244 242 239 234 231 229 227 228 230 231 232 234 234 233 234 235 236 237 237 238 238 239 240 240 240
306 307 309 310 312 312 311 310 308 308 307 307 305 303 300 298 297 296 296 295 296 298 298 299 299 298 298 298 297 294 290 284 278 277 275 267 258 250 244 241 239 236 235 235 234 231 228 229 231 234 238 240 241 241 241 240 241 241 243 245 246 247 245 242 240 238 233 229 229 229 229 231 232 233 233 234 235 235 235 235 236 237 238 239 240
315 316 317 317 318 318 316 314 312 311 310 310 310 308 305 303 301 298 296 293 291 292 293 294 295 296 296 297 297 297 297 296 292 289 288 284 277 270 262 254 249 242 237 236 237 237 234 230 229 229 232 236 239 240 240 240 241 241 241 242 244 247 247 245 245 244 240 235 231 229 228 228 229 230 231 232 234 235 234 234 234 236 237 238 239
317 316 317 318 319 318 317 315 313 312 310 310 310 309 308 306 304 302 299 296 292 289 289 290 290 290 291 291 292 293 294 295 294 293 292 292 288 283 278 271 265 257 246 240 240 241 241 238 234 230 229 231 235 238 239 239 240 241 241 241 241 243 245 246 245 245 244 242 238 233 229 228 228 229 229 229 232 234 235 236 235 236 238 238 238
316 315 316 319 320 320 319 317 314 312 311 310 310 308 307 306 305 304 302 299 295 291 289 288 287 287 287 286 286 287 288 289 290 291 290 290 289 287 284 279 275 271 262 253 250 249 246 244 243 239 234 231 230 233 236 237 238 239 240 240 240 241 244 245 245 244 243 243 242 238 234 232 230 230 229 228 230 232 233 235 236 238 240 240 239
319 320 320 322 324 323 322 318 314 312 311 310 309 307 305 304 304 303 302 299 296 294 292 289 287 286 286 285 284 284 283 284 285 286 287 287 287 286 284 282 279 278 274 268 264 261 256 250 247 246 242 237 233 231 231 233 235 237 238 239 239 241 243 244 244 243 241 241 241 240 240 238 235 233 231 229 228 228 228 229 230 234 237 237 237
321 322 321 321 321 320 318 315 313 311 310 309 309 307 304 303 303 301 300 299 297 295 293 290 288 286 285 284 283 283 282 282 281 282 283 285 285 285 284 283 280 278 278 276 273 271 268 261 254 251 249 245 240 236 233 231 231 232 234 237 238 240 242 243 245 244 242 241 240 241 242 241 239 236 234 232 229 227 226 226 225 226 229 231 232
321 321 320 318 317 315 313 312 311 311 310 309 307 306 305 303 303 302 300 299 299 298 295 291 288 286 284 283 283 282 282 281 281 280 280 281 282 283 283 282 281 279 278 277 276 275 275 272 265 259 255 251 247 242 239 236 233 231 231 233 235 238 240 242 244 245 244 242 240 241 241 240 239 237 237 236 233 230 228 227 227 226 227 229 229
320 320 318 317 316 315 314 312 312 312 312 311 309 308 307 305 304 302 300 299 298 297 295 292 289 286 284 283 283 283 282 282 281 280 280 279 279 280 280 280 280 279 278 277 277 275 274 275 273 268 262 258 254 248 244 242 239 237 234 233 234 235 237 240 242 245 245 244 242 241 240 239 238 237 235 236 235 234 232 231 230 228 227 229 229
315 317 317 316 316 314 314 313 311 311 310 310 309 309 309 309 307 304 301 299 297 295 294 292 291 288 286 284 282 282 282 283 283 282 282 280 280 279 278 278 278 278 278 276 276 275 273 272 272 272 269 265 261 256 250 246 244 242 240 237 236 236 236 238 240 243 245 245 244 243 241 239 237 236 235 234 234 234 234 234 234 232 230 229 229
312 315 315 315 314 313 313 313 312 310 308 307 307 309 310 309 308 306 303 300 297 295 294 293 293 291 289 287 284 283 282 281 282 283 283 283 282 281 280 278 277 276 276 276 275 274 273 270 268 268 268 267 265 261 257 252 249 246 244 242 240 239 239 239 240 242 244 246 245 244 243 240 236 235 235 234 233 233 233 233 234 235 234 233 231
312 313 313 312 312 313 314 314 313 311 309 309 309 310 310 309 307 305 303 301 298 296 295 294 293 293 292 291 288 287 285 283 282 281 281 282 282 282 282 281 279 276 275 275 275 274 273 271 268 265 263 264 264 264 261 258 254 251 248 246 244 242 241 241 241 242 243 246 247 246 244 241 237 235 234 234 234 234 234 233 232 233 235 236 235
313 312 311 311 313 314 315 315 313 312 311 311 311 311 309 307 304 302 300 297 295 293 292 292 291 292 292 290 289 288 287 286 285 283 282 282 281 282 282 281 281 279 277 275 273 272 271 270 269 267 264 261 261 262 262 261 258 255 253 251 249 247 244 243 243 243 243 244 246 247 246 243 239 236 234 233 233 234 234 234 233 232 233 235 237
314 313 312 312 313 313 314 314 313 313 312 312 311 309 307 304 301 299 296 294 292 290 289 289 288 288 288 287 287 287 287 286 286 286 285 285 284 284 283 283 282 281 280 278 275 273 271 269 268 267 266 263 260 258 259 260 260 258 256 254 252 250 248 246 244 244 244 244 244 245 246 245 242 241 238 234 232 232 232 233 233 232 233 233 235
314 313 312 312 312 313 313 313 313 312 311 311 309 307 304 301 299 297 296 295 294 292 291 290 288 287 286 286 286 286 286 285 284 285 285 286 286 286 286 286 285 285 283 281 278 275 272 270 267 266 265 264 262 258 255 254 257 258 257 255 254 252 250 249 247 246 245 245 245 244 245 245 245 245 243 240 235 231 230 231 230 231 232 233 233
314 314 313 312 312 312 312 312 312 311 310 308 307 305 304 302 300 299 299 298 297 296 295 294 292 289 288 286 286 286 285 285 284 284 284 284 285 286 286 286 286 286 286 284 282 278 274 271 268 267 265 264 262 261 257 252 250 253 254 254 253 253 251 249 248 247 247 247 247 245 244 244 246 246 245 245 242 237 233 231 230 230 230 231 232
314 313 313 313 312 312 311 311 311 309 308 307 305 304 303 303 303 303 303 301 300 300 299 297 294 291 289 287 286 285 285 285 285 285 285 285 285 285 286 286 286 286 285 285 284 282 279 275 271 269 267 265 263 261 260 256 250 247 249 250 251 251 251 250 249 247 247 247 248 247 245 244 245 247 246 246 246 244 240 235 232 231 230 229 230
314 313 313 313 312 312 311 310 310 309 308 306 305 305 305 306 307 306 306 303 302 301 299 297 295 293 290 288 287 286 285 285 285 285 285 285 285 285 285 285 285 286 285 285 285 284 282 280 276 272 269 268 266 263 261 259 255 250 246 246 247 248 249 249 249 248 246 246 246 247 247 246 246 246 246 246 247 248 247 242 237 234 233 231 230
314 313 314 313 311 311 310 310 310 309 309 308 307 307 308 309 308 307 306 304 302 301 298 297 296 295 293 292 290 289 287 286 285 284 284 284 284 284 283 283 283 284 284 284 284 284 283 282 279 276 272 269 268 266 264 261 258 255 250 246 245 244 245 246 247 248 247 245 245 244 245 245 246 246 245 245 247 248 249 247 242 237 235 234 233
314 313 312 311 310 310 310 310 309 309 309 309 309 310 309 309 308 306 304 303 302 301 300 298 297 296 296 294 293 291 289 288 287 286 285 284 284 284 283 283 283 282 283 283 282 282 281 281 279 277 275 272 269 268 266 263 260 257 253 250 247 245 243 243 243 245 246 246 245 243 243 243 244 245 244 244 245 247 248 249 247 243 239 236 235
314 312 311 310 310 311 310 310 309 309 310 310 310 310 309 308 306 305 303 302 301 301 300 299 298 297 297 295 294 293 291 290 289 288 287 286 285 284 284 284 284 284 283 283 281 280 279 278 278 277 276 274 271 269 267 266 264 260 256 252 249 247 245 243 241 241 243 245 245 244 242 242 242 243 243 243 244 245 246 247 247 247 245 241 237
314 312 311 311 311 310 309 309 309 309 310 310 310 309 308 306 305 304 304 303 302 301 300 300 299 298 297 296 295 294 293 292 291 290 289 288 286 285 284 284 284 285 285 284 282 280 278 277 276 275 274 273 272 270 268 267 266 265 261 256 251 248 247 245 243 240 240 241 243 243 242 241 241 241 241 242 243 243 244 245 244 245 246 246 243
313 312 311 311 311 310 310 309 310 310 310 309 308 307 306 305 305 305 305 304 302 301 301 300 299 298 297 296 295 295 294 294 294 293 291 289 287 285 285 284 284 284 284 283 282 281 279 277 276 274 274 273 272 271 269 268 268 267 266 262 256 252 249 247 245 242 240 239 240 241 241 241 240 240 240 240 241 242 243 243 243 243 244 245 246
312 311 311 311 311 311 312 311 310 310 309 308 307 306 306 306 307 307 305 304 303 302 301 300 299 298 297 296 296 295 295 295 295 294 292 290 288 286 285 284 283 283 283 283 282 281 280 278 276 275 274 273 272 271 270 269 268 268 267 266 262 257 253 250 248 245 241 239 238 239 239 239 239 239 238 238 239 240 241 242 242 243 244 244 244
311 311 310 311 312 313 313 311 310 310 309 309 308 308 307 307 307 307 306 305 303 302 301 300 299 299 298 296 296 296 296 296 295 294 293 291 289 287 286 284 284 284 283 283 282 281 280 279 278 276 275 274 273 272 271 270 269 268 267 267 265 262 257 253 250 248 244 241 238 238 238 238 238 238 238 237 237 238 239 240 240 241 243 244 244
312 312 312 314 314 314 312 310 310 310 310 309 309 308 308 308 308 307 306 306 304 303 301 300 300 299 298 297 297 297 296 297 296 296 294 292 290 288 287 286 286 285 284 283 282 282 281 281 280 278 277 275 274 272 271 270 269 268 267 267 266 264 261 256 252 249 247 243 240 238 238 237 236 236 236 236 236 236 237 238 239 239 241 242 243
312 313 315 315 314 312 311 310 310 310 309 309 309 308 308 308 308 307 307 306 305 304 302 301 300 300 299 299 298 298 297 297 297 297 295 294 292 291 290 289 288 286 284 284 284 284 283 283 282 281 279 277 275 273 272 270 268 267 266 266 265 264 262 259 255 251 247 245 243 240 238 237 235 235 235 235 235 235 236 236 237 238 238 240 241
314 314 315 314 312 312 311 310 310 310 309 309 309 308 308 308 308 308 307 306 304 303 302 302 301 300 300 299 298 298 297 297 297 297 296 295 294 293 292 290 288 286 285 285 285 285 285 285 284 283 281 279 277 275 273 271 269 267 266 265 264 263 261 260 258 255 250 246 244 243 241 239 236 235 234 234 234 233 234 234 235 236 236 237 239
316 315 315 313 312 311 310 310 311 310 309 309 309 309 309 308 308 308 306 305 304 303 302 301 301 301 300 299 298 297 296 296 297 296 296 296 295 294 292 289 287 286 286 286 286 286 286 285 285 284 283 282 280 278 276 273 270 269 267 265 264 263 262 260 258 257 254 250 247 245 243 241 239 236 234 234 234 233 233 233 233 234 235 235 236
316 315 314 313 312 311 311 311 311 310 310 310 309 310 309 309 309 307 305 304 303 302 302 301 301 301 300 299 297 296 295 295 296 296 296 296 295 294 291 288 286 285 286 286 286 286 286 286 285 286 285 284 283 282 280 277 274 271 269 267 265 264 262 260 257 255 255 252 249 246 244 242 240 237 234 232 232 233 233 233 233 234 234 235 235
315 314 312 311 311 311 311 311 311 311 312 311 310 310 309 309 308 306 305 303 302 302 302 301 301 301 300 298 297 296 295 296 296 296 296 296 296 294 291 287 285 285 285 286 286 286 285 285 285 286 286 285 285 284 284 282 279 275 272 268 266 264 262 260 257 255 253 252 250 248 244 241 239 237 234 231 231 231 232 232 232 233 234 234 234
314 313 312 311 311 311 311 311 312 313 313 312 311 310 309 308 307 306 305 303 302 302 301 301 301 301 300 298 297 296 295 295 296 296 297 297 297 294 291 287 285 285 285 285 285 285 284 284 284 284 284 285 285 285 284 283 281 278 275 272 268 266 262 259 257 255 253 252 251 249 246 243 241 239 236 233 232 232 232 231 231 232 233 233 234
313 312 311 311 311 311 312 312 313 314 314 313 312 310 309 309 308 307 305 304 303 302 301 301 300 300 299 298 297 296 295 295 296 296 297 298 297 295 291 287 285 286 286 286 286 286 285 285 284 284 283 284 285 284 283 282 281 279 277 275 273 269 265 260 257 255 253 251 251 250 248 246 243 241 240 238 235 234 234 233 232 233 233 233 234
313 312 312 311 311 312 313 314 315 316 316 315 313 312 310 309 308 307 306 304 303 302 302 301 300 299 298 297 296 295 295 295 296 296 297 298 298 296 292 289 287 286 286 286 287 287 287 286 285 284 284 284 284 284 282 280 279 277 274 272 271 269 266 262 258 255 253 251 250 249 247 245 243 242 241 239 237 235 234 234 233 233 233 233 233
313 313 312 312 312 314 315 316 317 318 318 316 314 311 310 308 307 307 307 305 304 303 302 300 299 299 298 297 296 295 294 295 295 296 297 298 299 297 294 292 289 287 286 286 287 287 286 286 285 284 284 284 283 283 281 278 276 274 270 265 262 262 261 259 256 254 252 250 249 247 246 243 241 239 239 238 236 234 234 234 234 234 233 233 232
313 313 312 312 314 316 317 317 319 319 318 317 314 312 310 309 308 307 307 305 304 303 301 299 299 298 297 296 296 295 295 295 294 295 296 297 298 297 296 294 292 289 288 287 286 286 286 285 286 286 285 285 284 282 281 278 274 270 267 263 259 257 257 258 258 256 255 254 252 250 247 243 237 235 235 236 235 234 233 233 234 234 234 233 232
313 312 312 313 315 317 318 319 321 321 320 318 316 314 313 312 311 308 306 305 305 304 301 300 299 298 297 296 295 295 294 294 294 294 295 296 296 296 295 295 293 291 289 287 286 286 286 287 287 287 286 287 285 283 281 278 274 269 264 260 258 257 256 257 260 261 260 259 256 253 249 242 233 229 230 232 232 232 231 231 232 233 233 233 233
313 312 312 314 317 319 320 321 322 322 321 319 318 317 317 315 313 309 306 305 305 303 301 300 299 298 296 295 295 294 294 294 293 293 294 295 295 295 294 294 294 292 290 289 287 287 287 287 287 287 286 286 284 283 281 279 277 272 266 260 258 257 255 257 261 264 265 263 259 253 248 241 232 227 226 227 228 229 229 229 229 231 232 233 233
312 311 313 316 318 320 321 322 324 323 321 320 320 319 318 317 313 310 306 305 304 303 302 301 299 298 297 295 294 294 294 294 293 293 294 295 294 294 293 293 293 292 291 290 289 288 287 287 287 286 284 282 283 283 282 280 278 275 272 265 259 256 257 259 263 265 265 263 258 251 245 239 233 227 225 225 225 225 225 225 225 227 229 231 232
312 312 315 318 320 321 322 323 324 323 320 321 321 320 319 317 314 310 307 306 305 303 302 301 300 299 298 296 295 294 293 293 293 293 294 295 295 294 293 292 292 291 290 290 290 288 287 286 285 284 282 281 282 284 283 281 278 276 274 269 261 256 256 258 261 263 264 263 259 252 244 235 227 221 220 221 221 221 222 222 222 223 225 227 229
313 314 316 318 320 321 322 323 323 322 320 321 322 322 320 317 314 311 309 307 306 304 302 301 300 299 298 297 295 294 293 292 291 292 293 294 295 295 294 294 292 290 290 291 291 290 288 285 283 281 280 281 283 285 284 282 278 274 270 266 260 255 254 255 258 260 261 261 259 254 245 235 226 220 217 217 218 219 220 220 221 222 223 225 226
313 314 316 319 320 322 323 323 322 321 320 321 323 323 321 317 314 312 309 308 306 304 302 301 299 298 298 297 296 295 293 292 291 291 292 293 293 293 292 293 292 291 290 289 289 288 286 284 281 280 280 281 283 284 284 282 279 272 266 263 260 257 255 255 256 257 258 258 258 254 244 232 224 220 218 217 216 217 218 219 219 220 221 222 223
313 315 317 319 321 322 323 323 321 320 320 321 322 322 320 318 315 313 311 310 308 305 303 301 299 298 297 296 296 295 294 292 291 291 291 292 292 291 291 290 290 290 290 289 288 286 284 281 279 280 282 283 280 277 277 279 277 273 269 267 266 262 257 254 252 253 253 253 252 248 240 229 221 218 218 217 215 214 215 216 217 217 218 219 220
313 315 317 319 321 323 323 322 321 319 319 321 321 320 319 318 317 316 314 312 309 306 304 301 299 298 297 296 295 294 294 293 291 290 289 289 289 290 290 290 289 288 289 289 288 287 285 282 281 282 285 284 279 274 271 270 270 270 270 269 266 262 259 253 249 248 248 247 246 243 236 229 221 216 216 216 216 215 215 215 216 216 216 217 219
314 316 318 320 322 323 323 322 320 319 319 320 320 319 318 317 318 318 317 314 310 307 304 302 300 299 298 296 295 295 295 293 292 290 289 288 286 285 286 288 289 288 288 287 287 286 285 285 285 286 286 283 279 277 275 271 268 265 265 267 269 268 263 255 250 248 247 246 245 242 237 231 223 217 215 214 215 216 216 216 216 216 216 216 218